Location: Raleigh
(35.7720°N, 78.6390°W)
Time: 23:41:46
(UTC-04:00)

Amateur Radio Satellites - All Passes

Search period start: 25 October 2014 23:11
Search period end: 26 October 2014 23:11
Location: Raleigh, 35.7720°N, 78.6390°W

Satellite Date Start Highest point End Downlink Frequencies (MHz)
Time Altitude Azimuth
RS-15 25 Oct 23:11:49 23:22:48 70° 302° (WNW) 23:33:43 29.354 - 29.394 USB, Beacon 29.352 USB
ZACube-1 25 Oct 23:36:17 23:40:13 28° 264° (W) 23:44:07 437.345 MHz
MaSat-1 26 Oct 00:12:15 00:16:19 51° 295° (WNW) 00:20:02 437.345 MHz
UOSAT-12 26 Oct 00:25:31 00:30:09 60° 244° (WSW) 00:34:41 437.025 FM, 437.400 FM
RS-15 26 Oct 01:29:52 01:37:33 21° 329° (NNW) 01:45:19 29.354 - 29.394 USB, Beacon 29.352 USB
Oscar 16 26 Oct 01:33:44 01:36:11 13° 92° (E) 01:38:37 437.025 USB, Beacon 2401.1428
Oscar 10/S400 26 Oct 01:42:58 02:47:17 22° 245° (WSW) 05:17:49 145.825 - 145.975 CW/USB, Beacon 145.810 USB
JAS-1B 26 Oct 02:13:05 02:19:35 38° 100° (E) 02:27:10 435.800 - 435.900 CW/SSB
Oscar 19 26 Oct 02:24:56 02:29:50 46° 99° (E) 02:34:43 437.125 CW, 437.150 USB
AO-27 26 Oct 02:46:03 02:50:33 29° 97° (E) 02:55:01 436.795 MHz FM
AO-Echo 26 Oct 02:56:08 03:01:19 50° 100° (E) 03:06:25 ?
Oscar 16 26 Oct 03:10:51 03:15:53 60° 286° (WNW) 03:20:54 437.025 USB, Beacon 2401.1428
Sapphire 26 Oct 03:11:28 03:15:58 28° 107° (ESE) 03:20:29 437.095 MHz 1200 baud AX-25 AFSK
Uribyol 2 26 Oct 03:32:32 03:37:46 89° 102° (ESE) 03:42:57 436.500 FM
PCSat 26 Oct 03:33:03 03:38:13 49° 111° (ESE) 03:43:25 145.825 MHz
ITAMSAT 1 26 Oct 03:38:54 03:44:08 85° 284° (WNW) 03:49:20 435.822 SSB
RS-15 26 Oct 03:52:08 03:56:24 13° 7° (N) 04:00:42 29.354 - 29.394 USB, Beacon 29.352 USB
JAS-1B 26 Oct 04:03:52 04:10:04 38° 290° (WNW) 04:17:18 435.800 - 435.900 CW/SSB
Oscar 19 26 Oct 04:05:19 04:08:47 19° 294° (WNW) 04:12:16 437.125 CW, 437.150 USB
Gurwin Techsat 1B 26 Oct 04:06:04 04:11:24 89° 284° (WNW) 04:16:43 435.225 FM
TMSAT-1 26 Oct 04:16:28 04:21:48 85° 103° (ESE) 04:27:06 436.925 FM
AO-7 26 Oct 04:21:35 04:27:59 24° 95° (E) 04:34:20 29.400 - 29.500 MHz
AO-27 26 Oct 04:25:28 04:29:58 30° 291° (WNW) 04:34:26 436.795 MHz FM
AO-Echo 26 Oct 04:36:01 04:39:37 19° 295° (WNW) 04:43:13 ?
Uosat F 26 Oct 04:43:15 04:46:50 19° 94° (E) 04:50:24 435.120 FM
Sapphire 26 Oct 04:54:17 04:59:12 35° 303° (WNW) 05:04:10 437.095 MHz 1200 baud AX-25 AFSK
PCSat 26 Oct 05:17:44 05:21:52 22° 308° (NW) 05:26:02 145.825 MHz
OPAL 26 Oct 05:30:46 05:35:54 74° 73° (ENE) 05:41:00 ?
TMSAT-1 26 Oct 05:59:36 06:00:56 11° 299° (WNW) 06:02:16 436.925 FM
JAS-2 26 Oct 06:02:08 06:09:26 41° 96° (E) 06:16:33 435.800 - 435.900 CW/SSB, 435.910 FM
RS-15 26 Oct 06:04:42 06:14:12 31° 41° (NE) 06:23:56 29.354 - 29.394 USB, Beacon 29.352 USB
AO-7 26 Oct 06:13:00 06:21:13 66° 291° (WNW) 06:29:25 29.400 - 29.500 MHz
Uosat F 26 Oct 06:21:01 06:25:45 41° 289° (WNW) 06:30:27 435.120 FM
Hamsat 26 Oct 06:37:59 06:41:58 41° 99° (E) 06:45:57 145.90 MHz
OPAL 26 Oct 07:14:00 07:15:12 11° 267° (W) 07:16:24 ?
STRAND 1 26 Oct 07:17:28 07:22:36 83° 76° (ENE) 07:27:46 ?
PANSAT 26 Oct 07:20:11 07:23:02 20° 168° (SSE) 07:25:54 not established
Saudisat 1A 26 Oct 07:23:00 07:27:19 62° 117° (ESE) 07:31:40 436.775 MHz
JAS-2 26 Oct 07:47:07 07:54:15 41° 292° (WNW) 08:01:20 435.800 - 435.900 CW/SSB, 435.910 FM
AO-7 26 Oct 08:09:17 08:12:25 13° 310° (NW) 08:15:33 29.400 - 29.500 MHz
Hamsat 26 Oct 08:15:18 08:17:32 14° 293° (WNW) 08:19:47 145.90 MHz
RS-15 26 Oct 08:16:30 08:27:45 80° 244° (WSW) 08:39:30 29.354 - 29.394 USB, Beacon 29.352 USB
SO-67 26 Oct 08:27:03 08:30:29 69° 283° (WNW) 08:33:54 435.3500 MHz FM
PANSAT 26 Oct 08:59:27 09:02:43 27° 180° (S) 09:05:59 not established
Saudisat 1A 26 Oct 09:04:56 09:07:16 14° 314° (NW) 09:09:37 436.775 MHz
HO-68 26 Oct 09:14:40 09:20:29 26° 96° (E) 09:26:16 435.675 MHz FM
UKube-1 26 Oct 09:55:20 09:57:52 15° 94° (E) 10:00:23 145.840 MHz, 145.915 MHz
MaSat-1 26 Oct 10:00:59 10:03:19 37° 250° (WSW) 10:05:32 437.345 MHz
RS-15 26 Oct 10:32:31 10:38:24 16° 261° (W) 10:44:25 29.354 - 29.394 USB, Beacon 29.352 USB
Oscar 11 26 Oct 10:34:08 10:38:13 41° 99° (E) 10:42:16 145.825 FM, Beacon 2401.500 USB
FUNcube-1 26 Oct 10:37:10 10:39:52 17° 94° (E) 10:42:33 145.950 - 145.970 MHz USB
PANSAT 26 Oct 10:39:36 10:42:23 19° 193° (SSW) 10:45:10 not established
HO-68 26 Oct 11:01:29 11:08:24 53° 291° (WNW) 11:15:18 435.675 MHz FM
KITSAT 1 26 Oct 11:16:47 11:23:38 32° 106° (ESE) 11:30:29 435.175 FM
ZACube-1 26 Oct 11:27:50 11:32:03 72° 101° (ESE) 11:36:11 437.345 MHz
UKube-1 26 Oct 11:30:06 11:34:11 40° 288° (WNW) 11:38:14 145.840 MHz, 145.915 MHz
ISS 26 Oct 11:32:01 11:34:44 24° 130° (SE) 11:37:28 145.800 FM
SO-50 26 Oct 11:41:37 11:43:55 14° 108° (ESE) 11:46:15 436.795 FM
Oscar 10/S400 26 Oct 11:52:05 12:15:18 29° 153° (SSE) 12:30:45 145.825 - 145.975 CW/USB, Beacon 145.810 USB
Sapphire 26 Oct 12:02:59 12:05:52 14° 47° (NE) 12:08:44 437.095 MHz 1200 baud AX-25 AFSK
Oscar 11 26 Oct 12:11:35 12:14:01 15° 293° (WNW) 12:16:26 145.825 FM, Beacon 2401.500 USB
FUNcube-1 26 Oct 12:12:33 12:16:19 32° 288° (WNW) 12:20:02 145.950 - 145.970 MHz USB
PCSat 26 Oct 12:24:21 12:28:36 23° 52° (NE) 12:32:50 145.825 MHz
Oscar 16 26 Oct 12:48:01 12:51:06 16° 64° (ENE) 12:54:11 437.025 USB, Beacon 2401.1428
JAS-1B 26 Oct 12:58:49 13:02:49 19° 65° (ENE) 13:06:43 435.800 - 435.900 CW/SSB
ISS 26 Oct 13:08:22 13:11:19 29° 326° (NW) 13:14:17 145.800 FM
KITSAT 1 26 Oct 13:10:48 13:18:37 52° 303° (WNW) 13:26:29 435.175 FM
Uribyol 2 26 Oct 13:12:26 13:13:57 11° 61° (ENE) 13:15:28 436.500 FM
ITAMSAT 1 26 Oct 13:18:23 13:20:23 12° 62° (ENE) 13:22:23 435.822 SSB
SO-50 26 Oct 13:19:36 13:23:57 51° 303° (WNW) 13:28:27 436.795 FM
Oscar 19 26 Oct 13:38:56 13:43:53 50° 73° (ENE) 13:48:51 437.125 CW, 437.150 USB
Sapphire 26 Oct 13:44:29 13:49:56 82° 245° (WSW) 13:55:21 437.095 MHz 1200 baud AX-25 AFSK
Gurwin Techsat 1B 26 Oct 13:48:13 13:50:18 12° 62° (ENE) 13:52:24 435.225 FM
TMSAT-1 26 Oct 13:58:58 14:00:27 11° 61° (ENE) 14:01:57 436.925 FM
AO-27 26 Oct 14:01:24 14:06:02 33° 69° (ENE) 14:10:41 436.795 MHz FM
AO-Echo 26 Oct 14:06:19 14:10:57 45° 72° (ENE) 14:15:45 ?
PCSat 26 Oct 14:07:03 14:12:13 46° 249° (WSW) 14:17:21 145.825 MHz
Oscar 16 26 Oct 14:24:55 14:29:58 55° 259° (W) 14:35:01 437.025 USB, Beacon 2401.1428
UOSAT-12 26 Oct 14:33:30 14:38:06 82° 118° (ESE) 14:42:49 437.025 FM, 437.400 FM
JAS-1B 26 Oct 14:47:23 14:53:11 47° 260° (W) 14:58:39 435.800 - 435.900 CW/SSB
Uribyol 2 26 Oct 14:47:27 14:52:40 82° 257° (WSW) 14:57:56 436.500 FM
ITAMSAT 1 26 Oct 14:53:59 14:59:10 76° 257° (WSW) 15:04:25 435.822 SSB
KITSAT 1 26 Oct 15:12:58 15:16:08 12° 327° (NNW) 15:19:17 435.175 FM
AO-7 26 Oct 15:17:58 15:24:32 27° 59° (ENE) 15:31:06 29.400 - 29.500 MHz
Oscar 19 26 Oct 15:20:17 15:23:27 16° 267° (W) 15:26:38 437.125 CW, 437.150 USB
Gurwin Techsat 1B 26 Oct 15:24:16 15:29:34 76° 258° (WSW) 15:34:54 435.225 FM
TMSAT-1 26 Oct 15:34:18 15:39:36 83° 257° (WSW) 15:44:56 436.925 FM
AO-27 26 Oct 15:41:16 15:45:31 26° 264° (W) 15:49:49 436.795 MHz FM
AO-Echo 26 Oct 15:46:51 15:49:57 17° 268° (W) 15:53:07 ?
Saudisat 1A 26 Oct 15:52:50 15:56:22 23° 51° (NE) 15:59:54 436.775 MHz
Uosat F 26 Oct 15:54:00 15:57:40 21° 66° (ENE) 16:01:21 435.120 FM
JAS-2 26 Oct 16:16:16 16:17:37 11° 55° (NE) 16:18:59 435.800 - 435.900 CW/SSB, 435.910 FM
UOSAT-12 26 Oct 16:16:47 16:18:51 13° 316° (NW) 16:20:56 437.025 FM, 437.400 FM
AO-7 26 Oct 17:08:32 17:16:41 63° 256° (WSW) 17:24:54 29.400 - 29.500 MHz
Hamsat 26 Oct 17:29:10 17:32:19 21° 70° (ENE) 17:35:28 145.90 MHz
Uosat F 26 Oct 17:31:27 17:36:08 40° 261° (W) 17:40:52 435.120 FM
Saudisat 1A 26 Oct 17:32:00 17:35:58 33° 247° (WSW) 17:39:54 436.775 MHz
OPAL 26 Oct 17:44:22 17:48:19 24° 98° (E) 17:52:13 ?
JAS-2 26 Oct 17:55:23 18:01:14 75° 74° (ENE) 18:07:57 435.800 - 435.900 CW/SSB, 435.910 FM
ISS 26 Oct 18:03:19 18:05:07 14° 26° (NNE) 18:06:55 145.800 FM
SO-67 26 Oct 18:57:19 19:00:00 22° 72° (ENE) 19:02:41 435.3500 MHz FM
Hamsat 26 Oct 19:04:32 19:08:06 27° 264° (W) 19:11:40 145.90 MHz
KITSAT 1 26 Oct 19:14:32 19:17:07 12° 32° (NNE) 19:19:42 435.175 FM
OPAL 26 Oct 19:22:47 19:27:12 33° 292° (WNW) 19:31:35 ?
STRAND 1 26 Oct 19:31:22 19:36:04 35° 98° (E) 19:40:44 ?
ISS 26 Oct 19:38:52 19:42:12 86° 222° (SW) 19:45:32 145.800 FM
HO-68 26 Oct 19:42:41 19:46:29 15° 57° (ENE) 19:50:17 435.675 MHz FM
JAS-2 26 Oct 19:44:19 19:47:11 14° 273° (W) 19:50:12 435.800 - 435.900 CW/SSB, 435.910 FM
RS-15 26 Oct 20:29:05 20:35:57 19° 100° (E) 20:42:42 29.354 - 29.394 USB, Beacon 29.352 USB
SO-67 26 Oct 20:30:43 20:32:54 16° 266° (W) 20:35:06 435.3500 MHz FM
KITSAT 1 26 Oct 21:07:00 21:14:46 48° 56° (NE) 21:22:29 435.175 FM
STRAND 1 26 Oct 21:10:57 21:15:02 24° 293° (WNW) 21:19:05 ?
HO-68 26 Oct 21:26:00 21:33:09 88° 74° (ENE) 21:40:23 435.675 MHz FM
Oscar 11 26 Oct 21:26:52 21:30:17 23° 70° (ENE) 21:33:42 145.825 FM, Beacon 2401.500 USB
FUNcube-1 26 Oct 21:32:13 21:33:44 12° 65° (ENE) 21:35:14 145.950 - 145.970 MHz USB
SO-50 26 Oct 21:53:35 21:58:25 64° 59° (ENE) 22:03:15 436.795 FM
ZACube-1 26 Oct 22:21:05 22:25:23 41° 73° (ENE) 22:29:38 437.345 MHz
UKube-1 26 Oct 22:22:11 22:26:30 68° 258° (WSW) 22:30:51 145.840 MHz, 145.915 MHz
RS-15 26 Oct 22:35:40 22:46:44 89° 298° (WNW) 22:57:43 29.354 - 29.394 USB, Beacon 29.352 USB
Oscar 11 26 Oct 23:02:44 23:06:20 25° 264° (W) 23:09:56 145.825 FM, Beacon 2401.500 USB
